Location: Chuathbaluk
(61.5726°N, 159.2454°W)
Time: 10:50:05
(UTC+00:00)

ITAMSAT 1 - Visible Passes

Search period start: 17 January 2021 00:00
Search period end: 27 January 2021 00:00
Orbit: 783 x 797 km, 98.9° (Epoch: 16 January)

Date Brightness Start Highest point End Pass type
(mag) Time Alt. Az. Time Alt. Az. Time Alt. Az.
17 Jan 7.7 03:08:33 10° SE 03:13:38 60° ENE 03:18:45 10° NNW visible
17 Jan 9.2 04:48:36 10° SSW 04:53:24 37° W 04:58:13 10° NNW visible
17 Jan 9.2 16:49:52 10° NNE 16:54:42 37° E 16:59:30 10° SSE visible
17 Jan 7.7 18:29:21 10° NNE 18:34:27 59° WNW 18:39:32 10° SW visible
18 Jan 8.4 04:18:37 10° S 04:23:43 55° WSW 04:28:50 10° NNW visible
18 Jan 10.7 06:01:35 10° WSW 06:04:21 14° W 06:07:07 10° NW visible
18 Jan 10.0 16:20:38 10° NE 16:24:54 25° E 16:29:10 10° SE visible
18 Jan 7.7 17:59:47 10° NNE 18:05:00 86° WNW 18:10:12 10° SSW visible
19 Jan 7.8 03:48:56 10° SSE 03:54:08 82° WSW 03:59:22 10° NNW visible
19 Jan 10.2 05:30:26 10° SW 05:34:23 22° W 05:38:21 10° NW visible
19 Jan 10.6 15:51:40 10° NE 15:55:00 17° E 15:58:18 10° ESE visible
19 Jan 8.2 17:30:18 10° NNE 17:35:28 65° ESE 17:40:38 10° S visible
20 Jan 7.6 03:19:30 10° SE 03:24:40 69° ENE 03:29:50 10° NNW visible
20 Jan 9.5 04:59:56 10° SSW 05:04:33 32° W 05:09:12 10° NNW visible
20 Jan 11.0 15:23:40 10° ENE 15:24:57 11° ENE 15:26:14 10° E visible
20 Jan 9.0 17:00:52 10° NNE 17:05:50 43° E 17:10:46 10° S visible
21 Jan 8.7 04:29:49 10° S 04:34:49 48° W 04:39:51 10° NNW visible
21 Jan 10.9 06:13:33 10° WSW 06:15:36 12° WNW 06:17:40 10° NW visible
21 Jan 9.7 16:31:35 10° NNE 16:36:05 29° E 16:40:33 10° SSE visible
21 Jan 7.6 18:10:51 10° NNE 18:16:03 75° WNW 18:21:14 10° SSW visible
22 Jan 8.0 04:00:01 10° SSE 04:05:12 72° WSW 04:10:25 10° NNW visible
22 Jan 10.4 05:41:59 10° SW 05:45:35 19° W 05:49:12 10° NW visible
22 Jan 10.4 16:02:29 10° NE 16:06:12 19° E 16:09:55 10° SE visible
22 Jan 7.9 17:41:20 10° NNE 17:46:33 75° ESE 17:51:45 10° SSW visible
23 Jan 7.6 03:30:31 10° SSE 03:35:42 78° ENE 03:40:54 10° NNW visible
23 Jan 9.8 05:11:17 10° SSW 05:15:42 28° W 05:20:09 10° NNW visible
23 Jan 10.9 15:33:55 10° NE 15:36:13 13° ENE 15:38:30 10° ESE visible
23 Jan 8.7 17:11:53 10° NNE 17:16:57 50° E 17:21:59 10° S visible
24 Jan 9.0 04:41:03 10° SSW 04:45:57 41° W 04:50:52 10° NNW visible
24 Jan 11.1 06:26:09 10° W 06:26:52 10° WNW 06:27:35 10° WNW visible
24 Jan 9.5 16:42:32 10° NNE 16:47:14 33° E 16:51:55 10° SSE visible
24 Jan 7.7 18:21:55 10° NNE 18:27:05 66° WNW 18:32:13 10° SW visible
25 Jan 8.2 04:11:09 10° S 04:16:17 62° WSW 04:21:27 10° NNW visible
25 Jan 10.6 05:53:39 10° WSW 05:56:49 16° W 06:00:00 10° NW visible
25 Jan 10.2 16:13:21 10° NE 16:17:24 22° E 16:21:27 10° SE visible
25 Jan 7.8 17:52:23 10° NNE 17:57:37 86° ESE 18:02:49 10° SSW visible
26 Jan 7.7 03:41:32 10° SSE 03:46:44 89° ENE 03:51:58 10° NNW visible
26 Jan 10.1 05:22:42 10° SW 05:26:53 24° W 05:31:05 10° NW visible
26 Jan 10.7 15:44:31 10° NE 15:47:27 15° E 15:50:23 10° ESE visible
26 Jan 8.4 17:22:54 10° NNE 17:28:03 58° ESE 17:33:10 10° S visible
